www.pogodaiklimat.ru

Погода и климат >> Архив погоды >> Таиланд >> Сукхотаи


ПОГОДА в Сукхотаи

  • Прогноз погоды в Сукхотаи
  • Монитор погоды в Сукхотаи

АРХИВ ПОГОДЫ в Сукхотаи

Время (UTC), дата Ветер
(напр.,м/с)
 
Видим.   Явления Облачность Т
(С)
Тd
(С)
f
(%)
Тe
(С)
Тes
(С)
Комфортность P
(гПа)
Po
(гПа)
Тmin
(С)
Tmax
(С)
R
(мм)
R24
(мм)
S
(см)
03 17.02 ЮВ 3 8000 м дымка 8/3 600 м
[Cu Sc Ac lent Cs]
+27.4 +22.4 74 +36 +40 очень
душно
1014.1 1008.3
06 17.02 ЮВ 6 8000 м дымка 8/3 600 м
[Cu Sc Ac lent Cs]
+31.3 +24.0 65 +43 +46 опасность
перегрева
1011.2 1005.5
09 17.02 ЮВ 5 8000 м мгла 4/3 600 м
[Cu med, cong Ac lent Cs]
+32.3 +22.9 58 +42 +44 опасность
перегрева
1007.4 1001.7
12 17.02 ЮВ 4 8000 м дымка 3/1 600 м
[Cu hum Cs]
+29.9 +22.6 65 +39 +39 очень
душно
1008.1 1002.4 +33.4
15 17.02 ЮВ 3 8000 м дымка 3/0
[Cs]
+26.2 +22.6 81 +35 +35 очень
душно
1010.3 1004.5
18 17.02 В 3 8000 м дымка ясно +24.2 +22.1 88 +31 +31 очень
душно
1010.5 1004.6
21 17.02 Ю 3 8000 м дымка ясно +22.9 +21.5 92 +31 +31 очень
душно
1010.1 1004.2
00 18.02 штиль 0 2000 м дымка ясно +21.5 +20.9 96 +27 +27 душно 1011.3 1005.4 +20.5
03 18.02 штиль 0 8000 м дымка ясно +28.2 +21.6 67 +36 +51 опасность
солнечного
удара
1013.0 1007.2
06 18.02 ЮВ 6 10 км 3/3 600 м
[Cu med, cong]
+33.3 +20.6 47 +40 +45 очень
душно
1011.2 1005.6
09 18.02 ЮВ 6 10 км 6/3 600 м
[Cu Sc Cs]
+33.7 +18.9 42 +39 +40 очень
душно
1007.8 1002.2
12 18.02 Ю 2 10 км 4/1 600 м
[Cu hum Cs]
+28.2 +21.6 67 +36 +36 очень
душно
1008.4 1002.6 +35.0
15 18.02 Ю 3 10 км 1/0
[Ci fib]
+26.1 +19.3 66 +31 +31 очень
душно
1010.7 1004.8
18 18.02 З 5 10 км 1/0
[Ci fib]
+25.1 +20.5 76 +31 +31 очень
душно
1011.3 1005.4
21 18.02 З 4 10 км 3/0
[Ac trans Ci fib]
+24.5 +19.0 71 +29 +29 душно 1010.5 1004.6
00 19.02 ЮЗ 2 3000 м дымка 5/4 600 м
[Sc Ac lent Cs]
+23.0 +20.7 87 +30 +30 очень
душно
1012.6 1006.7 +21.9
03 19.02 В 5 8000 м дымка 3/0
[Cs]
+29.2 +23.1 70 +39 +45 очень
душно
1013.9 1008.1
06 19.02 СВ 5 8000 м мгла 3/3 600 м
[Cu hum Ci fib]
+33.0 +21.5 51 +41 +47 опасность
перегрева
1012.5 1006.8
09 19.02 В 6 8000 м мгла 3/0
[Cs]
+34.0 +21.8 49 +42 +44 опасность
перегрева
1009.5 1003.8
12 19.02 штиль 0 8000 м дымка 3/0
[Cs]
+29.2 +22.6 68 +39 +39 очень
душно
1011.3 1005.5 +34.8
15 19.02 ЮЗ 4 8000 м дымка 3/0
[Cs]
+26.7 +22.4 77 +35 +35 очень
душно
1013.6 1007.7
18 19.02 З 3 6000 м дымка ясно +24.3 +20.8 81 +30 +30 очень
душно
1014.0 1008.1
21 19.02 ЮВ 4 6000 м дымка ясно +23.2 +20.1 83 +30 +30 очень
душно
1012.7 1006.8
00 20.02 штиль 0 3000 м дымка ясно +21.7 +20.1 91 +27 +28 душно 1014.4 1008.4 +20.7
03 20.02 ЮВ 3 6000 м дымка ясно +28.6 +22.9 71 +38 +48 очень
душно
1016.7 1010.9
06 20.02 В 3 8000 м мгла ясно +34.0 +19.7 43 +40 +54 опасность
солнечного
удара
1014.6 1008.9
09 20.02 В 6 8000 м мгла ясно +34.8 +22.0 47 +43 +45 опасность
перегрева
1011.4 1005.8
12 20.02 штиль 0 8000 м дымка 3/0
[Ci fib]
+30.1 +23.0 66 +40 +40 очень
душно
1011.4 1005.7 +35.7
15 20.02 штиль 0 8000 м дымка 3/0
[Cs]
+26.8 +23.4 82 +36 +36 очень
душно
1014.1 1008.3
18 20.02 С 3 8000 м дымка 3/0
[Ci fib]
+24.1 +21.8 87 +31 +31 очень
душно
1013.2 1007.3
21 20.02 штиль 0 8000 м дымка 3/0
[Ci fib]
+23.4 +21.3 88 +31 +31 очень
душно
1012.2 1006.4
00 21.02 штиль 0 2000 м дымка 3/0
[Ci fib]
+22.0 +20.5 91 +28 +28 душно 1014.6 1008.6 +20.2
03 21.02 штиль 0 8000 м мгла 3/0
[Ci fib]
+28.4 +21.0 64 +36 +50 очень
душно
1017.6 1011.8
06 21.02 штиль 0 8000 м мгла 3/0
[Ci fib]
+34.2 +20.5 45 +41 +63 опасность
перегрева
1013.6 1007.9
09 21.02 штиль 0 8000 м мгла ясно +36.0 +18.5 36 +40 +48 очень
душно
1010.7 1005.1
12 21.02 штиль 0 8000 м мгла 3/0
[Ci fib]
+30.6 +22.4 62 +40 +40 очень
душно
1009.6 1003.9 +36.3
15 21.02 СВ 2 8000 м дымка 3/0
[Ci fib]
+26.0 +22.7 82 +34 +34 очень
душно
1011.5 1005.7
18 21.02 штиль 0 8000 м дымка 3/0
[Ci fib]
+25.0 +22.0 83 +32 +32 очень
душно
1011.2 1005.3
21 21.02 В 2 6000 м дымка 3/0
[Ci fib]
+22.5 +21.0 91 +29 +29 очень
душно
1010.1 1004.2
00 22.02 штиль 0 800 м туман ясно +21.8 +20.6 93 +28 +28 душно 1012.1 1006.1 +20.7
03 22.02 штиль 0 6000 м мгла {туман} ясно +29.0 +21.6 64 +37 +52 опасность
солнечного
удара
1013.8 1008.0
06 22.02 штиль 0 10 км {туман} ясно +35.0 +20.0 42 +41 +64 опасность
перегрева
1010.5 1004.9
09 22.02 штиль 0 10 км ясно +36.0 +19.5 38 +41 +49 опасность
перегрева
1008.1 1002.5
12 22.02 штиль 0 10 км ясно +30.5 +23.6 67 +42 +42 опасность
перегрева
1007.3 1001.6 +37.0
15 22.02 штиль 0 10 км 3/0
[Ci fib]
+27.0 +21.6 72 +34 +34 очень
душно
1009.7 1003.9
18 22.02 ЮЗ 2 10 км 3/0
[Ci fib]
+25.2 +20.1 73 +31 +31 очень
душно
1009.4 1003.5
21 22.02 СВ 3 10 км 3/0
[Ci fib]
+22.8 +19.2 80 +29 +29 очень
душно
1008.6 1002.7
00 23.02 штиль 0 2000 м дымка ясно +22.3 +21.1 93 +29 +29 очень
душно
1010.1 1004.2 +21.2
03 23.02 В 4 6000 м дымка ясно +29.8 +22.8 66 +39 +47 очень
душно
1012.0 1006.3
06 23.02 ЮВ 3 8000 м мгла ясно +35.2 +18.4 37 +39 +54 опасность
солнечного
удара
1009.6 1004.0
09 23.02 ЮВ 6 8000 м мгла ясно +36.1 +17.4 33 +39 +41 очень
душно
1006.6 1001.0
12 23.02 штиль 0 8000 м мгла ясно +30.5 +21.1 57 +38 +38 очень
душно
1007.2 1001.4 +37.0
15 23.02 ЮЗ 4 8000 м мгла ясно +28.2 +16.7 50 +32 +32 душно 1009.7 1003.9
18 23.02 штиль 0 10 км ясно +27.2 +17.3 55 +31 +31 душно 1010.0 1004.2
21 23.02 З 4 10 км ясно +25.2 +15.8 56 +28 +28 жарко 1009.2 1003.3
00 24.02 штиль 0 6000 м дымка ясно +21.2 +18.5 85 +26 +26 душно 1010.7 1004.8 +20.1

 

Местоположение метеостанции Сукхотаи (Таиланд): широта 17.10 долгота 99.80 высота над уровнем моря 50 м.

В архиве по умолчанию представлена погода в Сукхотаи за последнюю неделю. Архивные данные за месяц целиком и за предыдущие месяцы, начиная с января 2011 года, Вы можете получить, выбрав интересующий диапазон дат из раскрывающегося списка и нажав кнопку "Ввод!".


*Определитесь, кто Вы:
робот инопланетянин человек

Внимание! Время в таблицах - всемирное. Для получения местного времени необходимо прибавить поправку, которая равна 7 ч.

Смотрите также архив погоды в соседних городах и на ближайших метеорологических станциях:

Погода в Си Самронг Агромете (Таиланд) (11 км)
Погода в Пхитсанулоке (Таиланд) (61 км)
Погода в Уттарадите (Таиланд) (66 км)
Погода в Таке (Таиланд) (73 км)
Погода в Кампхэнгпхете (Таиланд) (75 км)
Погода в Тоене (Таиланд) (84 км)
Погода на Плотине Пумипона (Таиланд) (85 км)
Погода в Пичит Агромете (Таиланд) (90 км)
Погода в Дои Му Со Агромете (Таиланд) (100 км)
Погода в Прхрэ (Таиланд) (125 км)

Пояснения к столбцам:

Ветер - указаны скорость ветра в м/с - средняя за 10 мин, порывы в срок и между сроками (в фигурных скобках) и направление, откуда дует ветер: С - северный, СВ - северо-восточный, В - восточный, ЮВ - юго-восточный, Ю - южный, ЮЗ - юго-западный, З - западный, СЗ - северо-западный.
Видимость - горизонтальная дальность видимости в метрах или километрах. При видимости от 1 до 10 км при отсутствии осадков обычно наблюдается дымка, при ухудшении видимости до 1 км и менее - туман. В сухую погоду видимость может ухудшаться дымом, пылью или мглою.
Явления - указаны атмосферные явления, наблюдавшиеся в срок или в последний час перед сроком; фигурными скобками обозначены явления, наблюдавшиеся между сроками (за 1-3 часа до срока); квадратными скобками обозначены град или гололедные отложения с указанием их диаметра в мм.
Облачность - указаны через наклонную черту общая и нижняя облачность в баллах и высота нижней границы облаков в метрах; квадратными скобками обозначены формы облаков: Ci - перистые, Cs - перисто-слоистые, Cc - перисто-кучевые, Ac - высококучевые, As - высокослоистые, Sc - слоисто-кучевые, Ns - слоисто-дождевые, Cu - кучевые, Cb - кучево-дождевые. Подробнее классификацию облаков см. в Атласе облаков (PDF).
T - Температура воздуха - температура, измеренная на высоте 2 м над землей.
Td - Температура точки росы - температура, при понижении до которой содержащийся в воздухе водяной пар достигнет насыщения.
f - Относительная влажность воздуха - влажноcть воздуха, измеренная на высоте 2 м над землей.
Te - Эффективная температура - температура, которую ощущает одетый по сезону человек в тени. Характеристика душности погоды. При расчете учитывается влияние влажности воздуха и скорости ветра на теплоощущения человека.
Tes - Эффективная температура на солнце - температура, которую ощущает человек, с поправкой на солнечный нагрев. Характеристика знойности погоды. Зависит от высоты солнца над горизонтом, облачности и скорости ветра. Ночью, в пасмурную погоду, а также при ветре 12 м/с и более поправка равна нулю.
P - Атмосферное давление - приведенное к уровню моря атмосферное давление.
Po - Атмосферное давление - измеренное на уровне метеостанции атмосферное давление.
Tmin - Минимальная температура - минимум температуры воздуха на высоте 2 м над землей.
Tmax - Максимальная температура - максимум температуры воздуха на высоте 2 м над землей.
R - Количество осадков - Количество выпавших осадков за период времени, мм. При наведении курсора мыши на число - период времени, за который выпало указанное количество осадков.
R24 - Количество осадков - Количество выпавших осадков за 24 часа, мм.
S - Снежный покров - Высота снежного покрова, см. При наведении курсора мыши на число - состояние снежного покрова и степень покрытия местности в баллах.